Location: Burla
(50.9568°N, 10.4983°E)
Time: 20:26:07
(UTC+00:00)

Meteor 1-24 Rocket - Pass Details

Date: 18 January 2026
Orbit: 790 x 925 km, 81.3° (Epoch: 17 February)

Event Time Altitude Azimuth Distance (km) Brightness Sun altitude
Rises 05:47:06 0° 346° (NNW) 3,575 6.7 -13.0°
Reaches altitude 10° 05:49:35 10° 345° (NNW) 2,634 6.0 -12.6°
Maximum altitude 05:55:37 74° 261° (W) 964 3.8 -11.7°
Drops below altitude 10° 06:01:34 10° 178° (S) 2,603 6.5 -10.8°
Sets 06:04:01 0° 176° (S) 3,530 7.3 -10.4°
